View from above orbital plane
|
View from above satellite
|
Ground track
|
The orbit data is extracted from the following two-line orbital elements,
1 22208U 92073B 21063.53843062 .00000013 00000-0 -20890-5 0 9997
2 22208 82.9148 94.3726 0033501 212.9491 301.4025 13.75160196422461
Epoch (UTC): | 04 March 2021 12:55:20 |
Eccentricity: | 0.0033501 |
inclination: | 82.9148° |
perigee height: | 956 km |
apogee height: | 1006 km |
right ascension of ascending node: | 94.3726° |
argument of perigee: | 212.9491° |
revolutions per day: | 13.75160196 |
mean anomaly at epoch: | 301.4025° |
orbit number at epoch: | 42246 |
The dashed part of the orbit path shows where the satellite is in the earth's shadow,
|
|